Location: Kirkcaldy
(50.3333°N, 113.2333°W)
Time: 21:24:22
(UTC+00:00)

Envisat - Pass Details

Date: 18 June 2023
Orbit: 763 x 764 km, 98.2° (Epoch: 22 September)

Event Time Altitude Azimuth Distance (km) Brightness Sun altitude
Rises 09:44:35 0° 33° (NNE) 3,242 8.5 -10.8°
Reaches altitude 10° 09:49:16 10° 72° (ENE) 2,308 6.3 -10.4°
Maximum altitude 09:50:15 11° 83° (E) 2,270 6.0 -10.3°
Drops below altitude 10° 09:51:15 10° 95° (E) 2,305 5.9 -10.3°
Sets 09:55:52 0° 134° (SE) 3,223 6.1 -9.9°
